Vorticity
7 7 12 8 3 3 -7 6 -1 -7 21 -2 -9 6 1 6 -3 -2 -1 9 1 4 10 8 20 9 17 8 9 10 12 5 2 13 14 14 17 17 17 15 14 15 15 10 11 13 11 11 11
5 7 8 9 17 21 15 6 15 -3 1 -1 6 0 7 6 10 4 11 8 6 8 17 9 11 7 4 6 5 6 4 7 12 3 0 0 1 1 2 1 1 0 2 6 6 10 14 14 12
0 13 4 32 10 -14 14 6 3 11 6 10 1 8 8 2 13 6 10 9 13 9 10 13 5 9 11 11 10 7 10 13 0 3 4 2 2 2 1 3 2 3 3 2 2 1 2 4 9
24 1 18 14 -2 16 8 3 6 -2 8 -6 13 5 15 14 6 3 19 8 9 14 11 7 12 16 15 18 17 16 7 3 4 2 -1 2 2 4 5 4 5 5 4 4 4 4 3 4 3
16 7 8 -0 13 -7 3 12 2 9 -5 -1 8 21 15 15 13 9 9 14 14 9 10 14 9 6 5 4 4 2 4 2 3 3 2 3 3 2 3 2 1 3 4 3 3 3 4 5 4
1 27 16 -2 16 10 5 -7 0 8 -5 19 8 15 11 13 11 14 12 13 10 14 11 8 6 4 4 2 -0 0 2 3 2 3 3 4 4 5 4 5 5 2 -0 1 1 -1 -3 -2 2
20 -4 -1 -11 -6 -4 -5 7 -1 2 9 -6 13 16 14 10 23 21 15 15 10 4 3 2 2 1 2 2 2 2 2 3 4 4 5 4 3 3 2 3 4 5 4 3 3 5 4 3 3
-1 -2 -2 12 3 1 6 -1 6 12 6 17 13 14 7 3 6 7 4 3 1 3 3 4 4 3 1 1 2 2 4 5 3 5 3 3 2 3 4 5 6 6 6 7 8 7 7 10 11
16 23 4 11 10 15 13 9 16 16 12 13 14 4 6 8 7 4 3 1 4 2 2 2 2 2 3 4 5 4 3 4 6 6 5 5 4 4 8 7 7 6 6 5 4 4 4 2 2
-3 -5 12 -8 -3 -3 -14 7 19 7 7 6 -3 6 9 11 6 3 3 0 4 3 6 3 4 5 5 4 4 5 6 5 6 5 6 6 7 8 8 8 5 4 4 4 3 -0 1 8 8
-1 -4 9 5 -4 -1 22 16 19 14 17 18 15 6 8 6 3 3 3 5 6 6 4 2 4 5 -0 -3 3 4 2 4 6 6 7 6 6 6 5 5 3 1 3 5 5 5 4 11 10
-3 -1 9 5 4 -3 22 14 5 9 16 10 7 8 7 4 5 6 6 8 6 3 -0 3 6 4 1 6 9 3 3 3 2 6 6 4 4 4 6 5 5 3 4 5 6 4 9 7 8
0 1 20 7 18 19 15 2 4 6 4 9 7 9 8 9 10 6 4 4 2 2 5 8 1 -21 29 6 6 4 4 4 2 3 5 6 6 4 3 5 8 9 7 9 12 12 8 6 8
22 22 16 18 16 2 6 4 5 5 8 9 7 7 4 4 2 3 4 4 3 4 9 -4 39 58 -40 10 3 3 6 8 10 -3 2 4 8 5 5 9 10 11 12 13 10 10 8 5 6
10 8 7 7 6 6 6 4 7 4 6 3 7 5 6 3 3 2 2 2 7 3 6 3 -7 4 -16 30 2 6 6 6 -5 4 3 2 6 7 7 10 10 6 5 5 8 10 4 -2 1
7 9 6 1 7 5 4 5 36 9 9 9 2 6 6 2 2 1 6 6 5 4 3 3 5 6 -3 7 5 -3 5 5 -1 6 4 2 3 5 7 8 5 4 6 4 3 5 5 2 3
16 3 -5 -5 16 7 4 6 9 -4 6 6 7 2 2 2 2 1 12 5 1 3 3 2 3 2 5 1 1 1 1 0 4 4 4 7 9 8 8 5 2 3 6 5 4 3 5 1 1
7 1 -0 2 26 4 6 9 1 6 10 4 6 -0 -0 2 6 5 4 4 4 5 2 4 3 3 0 1 4 12 5 3 3 3 9 9 8 6 3 5 5 7 8 8 7 7 5 8 9
9 4 -4 -3 7 5 7 10 -1 -6 -4 2 7 0 5 3 3 3 4 4 10 0 3 4 3 2 2 4 5 6 4 3 5 10 8 7 3 4 9 7 5 5 9 7 6 6 4 1 2
10 -12 -7 0 7 8 7 10 4 6 11 4 5 5 5 4 5 6 6 4 6 3 2 3 3 1 4 5 6 6 4 8 12 8 5 5 9 6 5 7 7 2 1 1 3 5 6 8 8
9 8 11 2 5 6 3 7 6 6 12 9 -2 1 10 11 9 12 7 5 5 4 4 3 4 6 5 6 6 8 13 9 6 6 8 4 7 6 2 3 2 1 3 5 6 5 5 7 5
3 9 6 7 6 6 10 -3 3 9 2 0 2 2 -5 9 9 4 5 4 3 5 7 7 7 7 7 6 9 10 7 5 5 5 6 6 3 2 2 -0 4 3 7 6 8 8 7 9 11
5 5 5 5 5 6 10 10 -6 -4 -3 7 7 -1 29 -5 -1 2 4 9 9 8 7 8 9 5 8 10 7 6 7 6 6 5 3 2 -0 0 4 4 4 7 7 10 14 12 15 13 11
7 8 10 10 9 10 10 6 8 11 5 -3 -26 35 -11 -21 6 7 7 7 9 10 13 10 9 8 6 7 8 9 8 5 4 3 -0 -0 4 5 3 9 10 13 11 7 8 9 10 11 11
16 17 17 22 18 18 8 17 -6 6 10 13 9 7 8 5 8 6 5 4 7 9 13 11 11 8 6 9 8 4 3 2 -0 0 3 5 6 5 11 10 13 11 11 12 15 12 9 9 13
9 9 7 9 10 7 2 12 8 13 14 10 10 -2 8 2 -1 9 7 15 12 8 9 8 7 10 8 5 3 4 -1 0 2 4 8 9 10 17 18 14 13 14 12 12 13 12 14 18 24
8 10 10 11 11 14 10 2 1 6 11 20 -5 5 9 -4 3 18 14 11 14 11 9 10 10 6 2 4 2 2 2 3 3 7 11 17 17 13 14 11 11 11 11 12 18 25 32 35 35
10 9 10 12 15 19 19 6 2 5 -3 -6 18 -12 -20 13 19 15 11 11 10 9 6 3 -0 3 2 1 1 2 4 4 6 10 17 12 10 10 11 12 11 18 21 26 28 27 25 21 26
6 6 8 7 11 12 19 16 16 13 14 12 12 18 14 14 13 11 8 6 7 5 1 1 -1 -1 1 4 3 4 4 6 9 18 16 10 10 11 12 20 21 22 23 20 17 17 22 17 10
-2 -1 0 4 11 11 11 21 10 14 14 15 7 5 2 15 10 4 2 3 2 2 3 2 2 3 4 3 4 5 8 9 15 16 12 9 7 15 21 22 20 18 15 18 21 23 12 8 9
Height
5845 5849 5852 5856 5860 5860 5859 5857 5858 5858 5860 5861 5864 5868 5864 5859 5859 5862 5860 5860 5859 5858 5857 5856 5855 5854 5852 5851 5849 5848 5848 5847 5846 5844 5843 5842 5840 5839 5838 5837 5836 5834 5833 5832 5830 5828 5825 5824 5822
5842 5847 5849 5853 5856 5856 5850 5848 5852 5858 5857 5859 5864 5863 5863 5861 5858 5856 5857 5859 5855 5855 5855 5854 5852 5851 5849 5849 5848 5847 5846 5845 5845 5845 5844 5843 5841 5839 5838 5836 5835 5834 5832 5831 5829 5826 5824 5822 5821
5837 5841 5845 5849 5851 5848 5849 5850 5849 5857 5856 5859 5856 5857 5860 5858 5856 5853 5853 5856 5851 5852 5852 5851 5849 5848 5847 5846 5846 5846 5845 5845 5844 5843 5843 5842 5840 5839 5837 5835 5834 5833 5830 5830 5828 5825 5824 5822 5820
5833 5836 5841 5843 5842 5842 5845 5845 5848 5851 5849 5853 5854 5853 5855 5852 5849 5847 5852 5851 5851 5850 5850 5849 5848 5847 5847 5846 5846 5846 5845 5845 5844 5844 5842 5841 5839 5837 5835 5834 5832 5831 5829 5828 5826 5824 5822 5820 5819
5832 5834 5840 5838 5836 5841 5842 5845 5844 5848 5844 5845 5846 5850 5848 5847 5846 5847 5849 5848 5848 5848 5848 5849 5848 5848 5847 5847 5846 5846 5846 5845 5844 5843 5841 5839 5838 5836 5834 5833 5831 5829 5827 5825 5824 5822 5820 5819 5817
5831 5835 5834 5837 5839 5840 5842 5843 5844 5845 5843 5842 5843 5845 5846 5844 5843 5844 5845 5845 5847 5847 5848 5849 5848 5848 5848 5847 5846 5846 5844 5844 5842 5841 5839 5837 5835 5833 5831 5830 5828 5825 5823 5822 5820 5819 5817 5816 5815
5832 5834 5832 5833 5835 5838 5842 5843 5840 5841 5839 5840 5840 5843 5844 5841 5841 5841 5843 5844 5847 5847 5847 5847 5848 5848 5848 5847 5845 5844 5843 5842 5839 5838 5836 5833 5832 5830 5827 5825 5824 5821 5819 5818 5816 5814 5813 5811 5809
5828 5830 5831 5832 5834 5836 5839 5840 5840 5837 5836 5836 5839 5842 5843 5842 5842 5842 5844 5845 5846 5847 5848 5848 5847 5846 5844 5843 5842 5841 5840 5838 5835 5834 5833 5829 5829 5826 5823 5821 5819 5816 5815 5813 5810 5809 5808 5806 5804
5825 5829 5829 5829 5828 5832 5836 5836 5836 5837 5837 5836 5839 5841 5841 5841 5842 5843 5844 5845 5847 5847 5846 5845 5844 5842 5841 5840 5839 5838 5836 5834 5832 5830 5828 5826 5824 5822 5819 5816 5814 5811 5809 5807 5805 5803 5801 5800 5798
5823 5824 5827 5827 5827 5829 5830 5832 5835 5831 5832 5836 5838 5839 5840 5841 5842 5843 5844 5845 5845 5844 5845 5843 5841 5841 5838 5838 5836 5835 5833 5831 5827 5825 5822 5820 5819 5816 5814 5813 5809 5807 5804 5801 5799 5796 5795 5793 5791
5820 5823 5826 5825 5826 5829 5831 5831 5830 5830 5832 5834 5837 5838 5840 5841 5842 5842 5843 5843 5842 5841 5840 5838 5838 5838 5839 5838 5835 5832 5828 5826 5824 5821 5818 5815 5811 5809 5807 5804 5802 5799 5797 5794 5792 5789 5787 5786 5783
5819 5819 5824 5827 5827 5828 5831 5830 5830 5832 5834 5835 5838 5840 5840 5841 5841 5842 5842 5842 5840 5839 5838 5838 5837 5837 5834 5830 5828 5824 5823 5820 5819 5817 5813 5809 5807 5804 5800 5796 5794 5791 5789 5786 5784 5782 5779 5777 5776
5817 5821 5824 5826 5827 5829 5832 5831 5832 5832 5832 5835 5837 5839 5840 5839 5840 5840 5840 5840 5839 5838 5838 5837 5833 5828 5827 5824 5822 5818 5817 5813 5811 5810 5807 5804 5802 5798 5795 5791 5787 5784 5780 5777 5775 5773 5771 5769 5768
5818 5821 5822 5825 5828 5830 5831 5831 5832 5834 5833 5835 5835 5837 5838 5838 5839 5838 5835 5835 5832 5832 5833 5830 5823 5817 5820 5822 5818 5814 5811 5807 5805 5804 5801 5798 5795 5790 5787 5782 5778 5775 5773 5769 5767 5765 5763 5762 5760
5819 5822 5824 5826 5829 5830 5831 5831 5832 5834 5835 5834 5834 5835 5835 5835 5836 5836 5834 5831 5829 5827 5828 5824 5822 5815 5816 5817 5812 5809 5806 5802 5797 5795 5792 5791 5787 5780 5778 5772 5768 5765 5762 5759 5757 5754 5752 5751 5750
5820 5822 5823 5826 5828 5829 5830 5830 5831 5832 5832 5833 5834 5833 5832 5831 5831 5832 5830 5828 5826 5825 5823 5817 5813 5813 5809 5809 5803 5801 5798 5793 5790 5785 5780 5778 5777 5774 5767 5763 5758 5755 5753 5749 5747 5744 5742 5738 5735
5820 5821 5822 5824 5826 5829 5829 5828 5830 5830 5831 5830 5830 5830 5829 5825 5825 5825 5828 5826 5823 5821 5820 5818 5813 5810 5806 5803 5798 5793 5790 5787 5781 5775 5769 5764 5759 5756 5755 5751 5747 5745 5741 5737 5734 5731 5728 5725 5723
5820 5821 5821 5824 5827 5828 5828 5827 5826 5828 5829 5829 5829 5826 5824 5822 5821 5823 5823 5822 5819 5817 5815 5813 5808 5803 5800 5797 5792 5787 5783 5778 5771 5766 5762 5757 5753 5750 5745 5739 5735 5731 5728 5725 5721 5718 5714 5711 5707
5820 5822 5822 5823 5826 5827 5828 5829 5825 5824 5825 5826 5825 5824 5822 5822 5821 5818 5818 5817 5815 5811 5810 5809 5805 5800 5795 5790 5784 5779 5773 5767 5762 5756 5750 5744 5741 5737 5734 5730 5724 5721 5716 5711 5705 5700 5696 5693 5687
5820 5822 5820 5822 5826 5827 5826 5827 5825 5825 5824 5822 5822 5821 5820 5818 5817 5816 5815 5812 5810 5808 5806 5802 5798 5792 5787 5782 5777 5772 5767 5761 5755 5748 5742 5737 5732 5727 5721 5715 5710 5705 5700 5694 5689 5684 5679 5675 5665
5817 5819 5821 5823 5824 5825 5823 5822 5821 5823 5820 5817 5817 5818 5818 5817 5815 5815 5811 5807 5804 5801 5798 5793 5790 5785 5778 5773 5769 5765 5760 5754 5747 5740 5733 5727 5720 5713 5706 5701 5695 5689 5682 5676 5669 5662 5657 5653 5648
5817 5819 5819 5819 5820 5820 5820 5819 5815 5815 5814 5813 5812 5813 5813 5812 5812 5810 5804 5801 5797 5794 5792 5787 5781 5777 5772 5766 5760 5754 5749 5744 5737 5731 5724 5716 5708 5699 5692 5685 5679 5672 5664 5656 5649 5640 5633 5627 5623
5815 5814 5815 5815 5815 5815 5815 5814 5809 5806 5806 5806 5808 5809 5805 5804 5803 5802 5800 5797 5793 5788 5783 5776 5769 5763 5759 5756 5753 5747 5741 5734 5727 5719 5711 5703 5694 5686 5677 5668 5661 5654 5644 5635 5628 5618 5610 5604 5597
5809 5810 5810 5809 5810 5812 5810 5808 5802 5803 5801 5800 5804 5802 5797 5794 5793 5790 5788 5786 5784 5780 5773 5767 5760 5753 5746 5742 5737 5732 5728 5723 5716 5708 5699 5689 5680 5667 5654 5645 5637 5628 5618 5609 5601 5592 5584 5577 5570
5806 5806 5806 5806 5806 5806 5807 5805 5801 5800 5797 5794 5794 5794 5791 5787 5784 5781 5777 5772 5767 5766 5763 5757 5753 5747 5740 5734 5728 5721 5713 5706 5698 5689 5679 5670 5658 5645 5634 5622 5614 5605 5595 5586 5579 5570 5561 5551 5544
5804 5804 5804 5803 5803 5804 5802 5797 5798 5798 5794 5788 5785 5784 5783 5781 5778 5773 5773 5767 5761 5753 5748 5744 5740 5736 5731 5725 5718 5712 5704 5696 5686 5674 5662 5650 5638 5626 5614 5601 5592 5582 5572 5562 5554 5545 5535 5524 5514
5802 5802 5802 5801 5801 5802 5797 5795 5793 5793 5790 5789 5781 5775 5773 5771 5770 5768 5762 5757 5753 5748 5743 5737 5732 5727 5721 5715 5706 5698 5687 5677 5665 5654 5641 5628 5615 5603 5591 5577 5565 5555 5545 5534 5524 5514 5505 5495 5487
5801 5801 5800 5799 5799 5799 5797 5789 5788 5785 5784 5781 5776 5772 5767 5765 5761 5756 5751 5746 5741 5737 5731 5726 5720 5715 5707 5698 5688 5676 5666 5655 5645 5634 5620 5606 5592 5582 5569 5556 5542 5530 5516 5505 5496 5489 5482 5476 5468
5800 5798 5797 5796 5793 5792 5792 5788 5782 5775 5775 5771 5769 5764 5761 5758 5756 5751 5746 5740 5736 5730 5724 5717 5710 5702 5693 5685 5674 5661 5649 5635 5624 5612 5599 5581 5570 5557 5545 5531 5518 5506 5496 5486 5477 5470 5465 5459 5452
5797 5796 5795 5794 5791 5786 5782 5786 5777 5770 5767 5762 5759 5757 5755 5752 5748 5743 5738 5732 5725 5719 5712 5705 5697 5687 5678 5667 5655 5643 5628 5615 5604 5594 5580 5562 5549 5536 5522 5509 5498 5486 5476 5468 5461 5455 5450 5444 5438